Location: Krakow
(50.0830°N, 19.9170°E)
Time: 18:01:14
(UTC+01:00)

Vanguard 1 Rocket - Pass Details

Date: 12 December 2023
Orbit: 653 x 4219 km, 34.3° (Epoch: 29 February)

Event Time Altitude Azimuth Distance (km) Brightness Sun altitude
Rises 02:07:23 0° 220° (SW) 8,324 - -49.7°
Reaches altitude 10° 02:13:49 10° 214° (SW) 7,406 - -48.8°
Exits shadow 02:28:37 33° 185° (S) 5,461 11.0 -46.6°
Maximum altitude 02:35:39 38° 157° (SSE) 4,867 10.9 -45.6°
Drops below altitude 10° 02:51:28 10° 98° (E) 5,492 11.9 -43.2°
Sets 02:55:17 0° 91° (E) 6,078 12.4 -42.6°
